Weather History for KMDW - May, 2014

Change the Weather History Date:

Sunday, May 4, 2014

  Actual Average Record
Temperature  
Mean Temperature 54 °F 57 °F  
Max Temperature 61 °F 66 °F 82 °F (1999)
Min Temperature 47 °F 48 °F 37 °F (2005)
Degree Days  
Heating Degree Days 11 9  
Month to date heating degree days 49 37  
Since 1 July heating degree days 6695 5808  
Cooling Degree Days 0 1  
Month to date cooling degree days 0 4  
Year to date cooling degree days 5 17  
Growing Degree Days 4 (Base 50)    
Moisture  
Dew Point 31 °F    
Average Humidity 42    
Maximum Humidity 52    
Minimum Humidity 28    
Precipitation  
Precipitation 0.00 in 0.12 in 0.93 in (2003)
Month to date precipitation 0.13 0.49  
Year to date precipitation 6.96 10.85  
Sea Level Pressure  
Sea Level Pressure 30.02 in    
Wind  
Wind Speed 11 mph (NE)    
Max Wind Speed 17 mph    
Max Gust Speed 25 mph    
Visibility 10 miles    
Events      
T = Trace of Precipitation, MM = Missing Value Source: NWS Daily Summary

Daily Weather History Graph

Daily Weather History Graph

Search for Another Location

Airport or City:

Trip Planner

Search our weather history database for the weather conditions in past years. The results will help you decide how hot, cold, wet, or windy it might be!

Date:

Astronomy

May. 04, 2014 Rise Set
Actual Time 5:43 AM CDT 7:52 PM CDT
Civil Twilight 5:12 AM CDT 8:23 PM CDT
Nautical Twilight 4:35 AM CDT 9:01 PM CDT
Astronomical Twilight 3:54 AM CDT 9:42 PM CDT
Moon 10:07 AM CDT No Moon Set
Length of Visible Light 15h 10m
Length of Day
14h 09m
Waxing Crescent, 28% of the Moon is Illuminated
May 4
Waxing Crescent
May 6
First Quarter
May 14
Full
May 21
Last Quarter
May 28
New

Hourly Weather History & Observations

Time (CDT) Temp. Dew Point Humidity Pressure Visibility Wind Dir Wind Speed Gust Speed Precip Events Conditions
12:51 AM 61.0 °F 36.0 °F 39% 29.88 in 10.0 mi West 10.4 mph - N/A   Overcast
1:51 AM 60.1 °F 36.0 °F 41% 29.88 in 10.0 mi WNW 18.4 mph 25.3 mph N/A   Overcast
2:51 AM 57.9 °F 36.0 °F 44% 29.88 in 10.0 mi WNW 12.7 mph - N/A   Overcast
3:51 AM 55.9 °F 32.0 °F 40% 29.89 in 10.0 mi NW 10.4 mph - N/A   Scattered Clouds
4:51 AM 54.0 °F 32.0 °F 43% 29.92 in 10.0 mi NW 8.1 mph - N/A   Scattered Clouds
5:51 AM 54.0 °F 33.1 °F 45% 29.94 in 10.0 mi NW 11.5 mph - N/A   Scattered Clouds
6:51 AM 54.0 °F 33.1 °F 45% 29.96 in 10.0 mi NW 10.4 mph - N/A   Mostly Cloudy
7:51 AM 54.0 °F 33.1 °F 45% 30.00 in 10.0 mi NNW 12.7 mph - N/A   Mostly Cloudy
8:51 AM 55.0 °F 33.1 °F 43% 30.03 in 10.0 mi NNW 11.5 mph - N/A   Mostly Cloudy
9:51 AM 53.1 °F 32.0 °F 45% 30.04 in 10.0 mi NNE 13.8 mph - N/A   Mostly Cloudy
10:51 AM 53.1 °F 30.9 °F 43% 30.05 in 10.0 mi ENE 11.5 mph - N/A   Mostly Cloudy
11:51 AM 54.0 °F 32.0 °F 43% 30.07 in 10.0 mi East 11.5 mph - N/A   Mostly Cloudy
12:51 PM 51.1 °F 33.1 °F 50% 30.08 in 10.0 mi East 10.4 mph - N/A   Mostly Cloudy
1:51 PM 51.1 °F 32.0 °F 48% 30.07 in 10.0 mi ESE 8.1 mph - N/A   Mostly Cloudy
2:51 PM 53.1 °F 30.9 °F 43% 30.06 in 10.0 mi East 9.2 mph - N/A   Overcast
3:51 PM 52.0 °F 30.0 °F 43% 30.06 in 10.0 mi East 11.5 mph - N/A   Mostly Cloudy
4:51 PM 51.1 °F 28.9 °F 43% 30.06 in 10.0 mi East 12.7 mph - N/A   Mostly Cloudy
5:51 PM 52.0 °F 28.0 °F 40% 30.06 in 10.0 mi East 13.8 mph - N/A   Mostly Cloudy
6:51 PM 51.1 °F 26.1 °F 38% 30.06 in 10.0 mi ENE 9.2 mph - N/A   Mostly Cloudy
7:51 PM 50.0 °F 26.1 °F 39% 30.08 in 10.0 mi East 10.4 mph - N/A   Mostly Cloudy
8:51 PM 48.9 °F 27.0 °F 43% 30.09 in 10.0 mi East 10.4 mph - N/A   Mostly Cloudy
9:51 PM 48.0 °F 28.9 °F 48% 30.09 in 10.0 mi East 10.4 mph - N/A   Overcast
10:51 PM 48.0 °F 30.9 °F 52% 30.09 in 10.0 mi ENE 9.2 mph - N/A   Overcast
11:51 PM 48.0 °F 28.9 °F 48% 30.06 in 10.0 mi East 9.2 mph - N/A   Overcast